ONEWEB-0191, 48239

Orbit data source: Space-Track

ONEWEB-0191, 48239 is a payload satellite owned by One Web (NAA) (UK) in LEO that was launched on Sun, 25 Apr 2021 UTC via a SOYUZ-2-1B launch vehicle from the Vostochny Cosmodrome (VOSTO). Payload-class satellites include a variety of spacecraft equipped with specific instruments for various scientific and technological missions. These include communications satellites like Starlink; space stations such as the ISS; scientific satellites like the Hubble; Earth observation satellites from companies like Planet Labs, Umbra, and HawkEye 360; GPS; miniature CubeSats for education and research; and military/defense satellites.

Loading next visibility...
Identifier
48239, 2021-031AF
Orbit
LEO
Country
Flag of UKUK
Related business
Manufacturer
One Web
Mission
Operational Commercial Communications
Bus & Motor
ARROW, Unknown motor
Mass
148 kg wet, ~140 kg dry
Launch date (UTC)
2021-04-25 (5 years ago)
Launch vehicle
SOYUZ-2-1B
Launch site
Vostochny Cosmodrome (VOSTO)
Object type
Payload
Rocket body
Debris
Shape & HBR
Trap Box + 2 Pan, 6.7 m
Radar Cross Section
3.464 m², Large (>1 m²)

Expand to show TLE details & history
Last TLE update: 1 day ago

TLE from 1 day ago
0 ONEWEB-0191
1 48239U 21031AF  25305.48848221 -.00000081  00000-0 -25315-3 0  9995
2 48239  87.9022 335.0510 0001833  95.8655 264.2684 13.14501188218258
Epoch: 2025-11-01T11:43Z
TLE epoch observation values (Epoch: 2025-11-01T11:43:24.862Z)
Latitude
-0.00002°
Longitude
118.17957°
Altitude
1,208.829 km
Speed
7.25 km/s
True Right ascension
22h 20m 12s
True Declination
0° 00' 00"
Sunlit
Object was in daylight at epoch
Visualization orbit readout
Latitude
Unknown
Longitude
Unknown
Altitude
Unknown
Speed
Unknown
Apparent Right ascension
Unknown
Apparent Declination
Unknown
Sunlit
N/A
Visualization observer readout
Local Sidereal Time
09:12:11
Azimuth
Unknown
Elevation
Unknown
Doppler factor
Unknown
Orbital elements
Apogee altitude
1,204.3 km
Perigee altitude
1,201.52 km
Semi-major axis
7,581.047 km
Eccentricity
0.00018
Inclination
87.9022°
RAAN
335.051°
Arg. of periapsis
95.8655°
True anomaly
264.2475°
Mean anomaly
264.2684°
Eccentric anomaly
264.25795°
Mean motion
3.28813 °/min
Orbital period
109.48 mins
BSTAR
-0.00025315
Loading maneuver chart data...
Computing Atmospheric mass density...
Loading historical data...
Loading historical data...
Loading historical data...
Loading historical data...
Loading historical data...
Loading historical data...
Loading historical data...

Documentation

Showing up to 5 results
|